N124TL KNEW-KHUM

Flight info

Callsign N124TL
Flight time 0h 29m
Altitude 2500
Route VFR SOUTH EAST
Aircraft BE58/L-VGD/C

Departure

Time 2026-04-26 12:40
Airport Lakefront Airport (KNEW)

Arrival

Time 2026-04-26 13:09
Airport Houma Terrebonne Airport (KHUM)
Time Latitude Longitude Altitude Speed Heading
2026-04-26 12:34 30.03630 -90.02347 7 ft 0 kts 264°
2026-04-26 12:37 30.03630 -90.02350 7 ft 3 kts 274°
2026-04-26 12:38 30.03667 -90.02488 7 ft 20 kts 272°
2026-04-26 12:38 30.03654 -90.02683 7 ft 25 kts 236°
2026-04-26 12:38 30.03550 -90.02804 7 ft 21 kts 225°
2026-04-26 12:38 30.03579 -90.02878 7 ft 16 kts 290°
2026-04-26 12:39 30.03580 -90.03044 7 ft 16 kts 281°
2026-04-26 12:39 30.03660 -90.03074 7 ft 9 kts
2026-04-26 12:39 30.03699 -90.03052 7 ft 7 kts 65°
2026-04-26 12:39 30.03707 -90.02838 7 ft 73 kts 88°
2026-04-26 12:40 30.03712 -90.02050 182 ft 114 kts 92°
2026-04-26 12:40 30.03668 -90.01032 450 ft 138 kts 93°
2026-04-26 12:40 30.03543 -89.99876 787 ft 150 kts 111°
2026-04-26 12:40 30.02810 -89.99013 1155 ft 159 kts 155°
2026-04-26 12:41 30.01763 -89.98598 1558 ft 161 kts 149°
2026-04-26 12:41 30.00853 -89.97822 1790 ft 165 kts 139°
2026-04-26 12:41 29.99957 -89.96977 1726 ft 166 kts 139°
2026-04-26 12:41 29.99063 -89.96130 1719 ft 165 kts 138°
2026-04-26 12:42 29.98315 -89.95128 1719 ft 162 kts 126°
2026-04-26 12:42 29.97641 -89.94085 1719 ft 162 kts 125°
2026-04-26 12:42 29.96969 -89.93037 1718 ft 162 kts 125°
2026-04-26 12:42 29.96298 -89.91983 1717 ft 161 kts 125°
2026-04-26 12:43 29.95632 -89.90949 1719 ft 161 kts 125°
2026-04-26 12:43 29.94958 -89.89902 1720 ft 161 kts 125°
2026-04-26 12:43 29.94281 -89.88848 1720 ft 161 kts 125°
2026-04-26 12:43 29.93615 -89.87811 1719 ft 161 kts 125°
2026-04-26 12:44 29.92935 -89.86763 1719 ft 162 kts 125°
2026-04-26 12:44 29.92266 -89.85735 1719 ft 162 kts 125°
2026-04-26 12:44 29.91582 -89.84680 1720 ft 162 kts 125°
2026-04-26 12:44 29.90905 -89.83639 1721 ft 162 kts 125°
2026-04-26 12:45 29.90232 -89.82598 1720 ft 162 kts 125°
2026-04-26 12:45 29.89549 -89.81538 1720 ft 162 kts 125°
2026-04-26 12:45 29.88877 -89.80494 1719 ft 162 kts 125°
2026-04-26 12:45 29.88207 -89.79458 1719 ft 162 kts 125°
2026-04-26 12:46 29.87535 -89.78416 1721 ft 162 kts 125°
2026-04-26 12:46 29.86853 -89.77364 1720 ft 161 kts 125°
2026-04-26 12:46 29.86186 -89.76327 1720 ft 161 kts 125°
2026-04-26 12:46 29.85511 -89.75280 1720 ft 161 kts 125°
2026-04-26 12:47 29.84836 -89.74236 1719 ft 161 kts 125°
2026-04-26 12:47 29.84168 -89.73202 1720 ft 161 kts 125°
2026-04-26 12:47 29.83499 -89.72157 1720 ft 161 kts 125°
2026-04-26 12:47 29.82745 -89.71214 1716 ft 163 kts 149°
2026-04-26 12:48 29.81630 -89.71051 1721 ft 165 kts 194°
2026-04-26 12:48 29.80690 -89.71787 1726 ft 166 kts 226°
2026-04-26 12:48 29.79909 -89.72803 1721 ft 167 kts 229°
2026-04-26 12:48 29.79152 -89.73817 1720 ft 168 kts 229°
2026-04-26 12:49 29.78385 -89.74841 1715 ft 168 kts 229°
2026-04-26 12:49 29.77627 -89.75855 1712 ft 168 kts 229°
2026-04-26 12:49 29.76857 -89.76889 1707 ft 168 kts 229°
2026-04-26 12:49 29.76101 -89.77905 1705 ft 168 kts 229°
2026-04-26 12:50 29.75337 -89.78933 1706 ft 168 kts 229°
2026-04-26 12:50 29.74568 -89.79964 1706 ft 167 kts 229°
2026-04-26 12:50 29.73817 -89.80975 1707 ft 167 kts 229°
2026-04-26 12:50 29.72969 -89.81898 1709 ft 167 kts 217°
2026-04-26 12:51 29.71983 -89.82631 1707 ft 166 kts 211°
2026-04-26 12:51 29.70999 -89.83335 1707 ft 167 kts 211°
2026-04-26 12:51 29.70003 -89.84049 1706 ft 167 kts 211°
2026-04-26 12:51 29.69018 -89.84753 1704 ft 167 kts 211°
2026-04-26 12:52 29.68021 -89.85469 1703 ft 167 kts 211°
2026-04-26 12:52 29.67036 -89.86176 1703 ft 167 kts 211°
2026-04-26 12:52 29.66052 -89.86881 1703 ft 167 kts 211°
2026-04-26 12:52 29.65054 -89.87596 1703 ft 167 kts 211°
2026-04-26 12:53 29.64066 -89.88304 1703 ft 166 kts 211°
2026-04-26 12:53 29.63338 -89.89325 1705 ft 167 kts 249°
2026-04-26 12:53 29.63025 -89.90620 1704 ft 168 kts 257°
2026-04-26 12:53 29.62806 -89.91930 1704 ft 168 kts 260°
2026-04-26 12:54 29.62627 -89.93265 1703 ft 168 kts 262°
2026-04-26 12:54 29.62475 -89.94606 1703 ft 168 kts 263°
2026-04-26 12:54 29.62343 -89.95926 1703 ft 168 kts 264°
2026-04-26 12:54 29.62220 -89.97262 1702 ft 167 kts 264°
2026-04-26 12:55 29.62103 -89.98601 1703 ft 167 kts 264°
2026-04-26 12:55 29.61991 -89.99948 1703 ft 168 kts 264°
2026-04-26 12:55 29.61882 -90.01278 1700 ft 168 kts 265°
2026-04-26 12:55 29.61774 -90.02623 1702 ft 168 kts 265°
2026-04-26 12:56 29.61668 -90.03956 1703 ft 168 kts 265°
2026-04-26 12:56 29.61561 -90.05299 1701 ft 168 kts 265°
2026-04-26 12:56 29.61456 -90.06634 1703 ft 168 kts 265°
2026-04-26 12:56 29.61350 -90.07977 1701 ft 168 kts 265°
2026-04-26 12:57 29.61243 -90.09323 1702 ft 168 kts 265°
2026-04-26 12:57 29.61137 -90.10666 1703 ft 168 kts 265°
2026-04-26 12:57 29.61032 -90.11993 1703 ft 168 kts 265°
2026-04-26 12:58 29.60821 -90.14668 1705 ft 168 kts 265°
2026-04-26 12:58 29.60714 -90.16009 1703 ft 168 kts 265°
2026-04-26 12:58 29.60608 -90.17348 1703 ft 168 kts 265°
2026-04-26 12:58 29.60502 -90.18687 1705 ft 168 kts 265°
2026-04-26 12:59 29.60395 -90.20034 1703 ft 168 kts 265°
2026-04-26 12:59 29.60289 -90.21359 1704 ft 168 kts 265°
2026-04-26 12:59 29.60181 -90.22707 1703 ft 168 kts 265°
2026-04-26 12:59 29.60073 -90.24068 1704 ft 169 kts 265°
2026-04-26 13:00 29.59966 -90.25403 1706 ft 168 kts 265°
2026-04-26 13:00 29.59859 -90.26743 1706 ft 168 kts 265°
2026-04-26 13:00 29.59750 -90.28099 1705 ft 169 kts 264°
2026-04-26 13:00 29.59642 -90.29438 1705 ft 169 kts 265°
2026-04-26 13:01 29.59534 -90.30790 1704 ft 169 kts 264°
2026-04-26 13:01 29.59427 -90.32117 1705 ft 168 kts 264°
2026-04-26 13:01 29.59318 -90.33469 1703 ft 168 kts 264°
2026-04-26 13:01 29.59210 -90.34810 1704 ft 168 kts 264°
2026-04-26 13:02 29.59102 -90.36145 1705 ft 168 kts 264°
2026-04-26 13:02 29.58993 -90.37485 1705 ft 168 kts 264°
2026-04-26 13:02 29.58885 -90.38824 1706 ft 168 kts 264°
2026-04-26 13:02 29.58774 -90.40183 1704 ft 168 kts 264°
2026-04-26 13:03 29.58666 -90.41522 1705 ft 168 kts 264°
2026-04-26 13:03 29.58557 -90.42862 1705 ft 168 kts 264°
2026-04-26 13:03 29.58449 -90.44193 1705 ft 168 kts 264°
2026-04-26 13:03 29.58339 -90.45531 1705 ft 168 kts 264°
2026-04-26 13:04 29.58230 -90.46873 1706 ft 169 kts 264°
2026-04-26 13:04 29.58119 -90.48227 1705 ft 168 kts 264°
2026-04-26 13:04 29.58010 -90.49563 1709 ft 168 kts 264°
2026-04-26 13:04 29.57899 -90.50915 1710 ft 168 kts 264°
2026-04-26 13:05 29.57789 -90.52253 1710 ft 168 kts 264°
2026-04-26 13:05 29.57680 -90.53589 1709 ft 168 kts 264°
2026-04-26 13:05 29.57570 -90.54925 1713 ft 168 kts 264°
2026-04-26 13:05 29.57429 -90.56310 1594 ft 178 kts 261°
2026-04-26 13:06 29.57210 -90.57720 1458 ft 179 kts 258°
2026-04-26 13:06 29.56993 -90.59110 1407 ft 175 kts 259°
2026-04-26 13:06 29.56799 -90.60493 1319 ft 175 kts 262°
2026-04-26 13:06 29.56718 -90.61900 1206 ft 174 kts 274°
2026-04-26 13:07 29.57284 -90.62972 1251 ft 160 kts 329°
2026-04-26 13:07 29.58404 -90.63341 891 ft 170 kts 349°
2026-04-26 13:07 29.59542 -90.63507 933 ft 155 kts 356°
2026-04-26 13:07 29.60511 -90.63841 941 ft 142 kts 320°
2026-04-26 13:08 29.60921 -90.64844 708 ft 144 kts 278°
2026-04-26 13:08 29.60601 -90.65802 707 ft 126 kts 216°
2026-04-26 13:08 29.59774 -90.66075 518 ft 122 kts 181°
2026-04-26 13:08 29.58980 -90.66054 405 ft 105 kts 177°
2026-04-26 13:09 29.58258 -90.66034 244 ft 103 kts 178°
2026-04-26 13:09 29.57534 -90.66022 49 ft 100 kts 180°
2026-04-26 13:09 29.56912 -90.66026 8 ft 72 kts 180°
2026-04-26 13:09 29.56501 -90.66030 8 ft 47 kts 180°
2026-04-26 13:10 29.56221 -90.66032 8 ft 27 kts 177°
2026-04-26 13:10 29.56129 -90.65935 8 ft 16 kts 66°
2026-04-26 13:10 29.56247 -90.65907 8 ft 30 kts 359°
2026-04-26 13:10 29.56513 -90.65906 8 ft 35 kts
2026-04-26 13:11 29.56715 -90.65900 8 ft 21 kts 20°
2026-04-26 13:11 29.56832 -90.65788 9 ft 26 kts 34°
2026-04-26 13:11 29.56926 -90.65741 9 ft 0 kts